Regional Weather Roundup
Issued by NWS Wakefield, VA

Home | Current Version | Previous Version | Text Only | Print | Product List | Glossary Off
Versions: 1 2 3 4 5 6 7 8 9 10 11 12 13 14 15 16 17 18 19 20 21 22 23 24 25 26 27

000
ASUS41 KAKQ 052215
RWRAKQ

REGIONAL WEATHER ROUNDUP
NATIONAL WEATHER SERVICE WAKEFIELD VA
600 PM EDT THU MAY 05 2016

Note: "fair" indicates few or no clouds below 12,000 feet with no
significant weather and/or obstructions to visibility. * = Denotes
station may not report precipitation (e.g., rain,snow,etc.),
thunder or fog.

VAZ042-051-052>054-056-052300-
NORTHERN VIRGINIA

CITY           SKY/WX    TMP DP  RH WIND       PRES   REMARKS
WASH NATIONAL  LGT RAIN  56  49  77 NE12      29.64R
DULLES         PTSUNNY   57  47  69 N12       29.63F
FORT BELVOIR   CLOUDY    56  48  73 VRB2      29.62F
QUANTICO       CLOUDY    58  47  66 NE10      29.63S
FREDERICKSBRG* CLOUDY    55  52  88 NE3       29.62S
STAFFORD*      CLOUDY    55  48  76 N3        29.66S
WARRENTON      CLOUDY    57  46  65 N9        29.63R
CULPEPER*      CLOUDY    56  49  79 N7        29.64S
MANASSAS*      PTSUNNY   57  48  72 N13G20    29.63S
LEESBURG*      CLOUDY    59  52  77 N9        29.65S
WINCHESTER     CLOUDY    55  46  71 N3        29.65R
FRONT ROYAL*   CLOUDY    54  50  87 CALM      29.64R
LURAY*         CLOUDY    54  50  87 NE6       29.64S
$$

VAZ048-049-060>072-079>083-052300-
CENTRAL AND SOUTH CENTRAL VIRGINIA

CITY           SKY/WX    TMP DP  RH WIND       PRES   REMARKS
RICHMOND       RAIN      51  49  92 N8        29.62R FOG
CHESTERFIELD*  CLOUDY    52  39  62 NE6       29.64R
PETERSBURG*    LGT RAIN  53  53 100 N9        29.62R
HANOVER        CLOUDY    52  48  86 N6        29.64R
TAPPAHANNOCK*  DRIZZLE   54  50  87 N5        29.62S
QUINTON*       CLOUDY    51  50  97 NE6       29.62R
CHARLOTTSVILLE CLOUDY    55  48  77 N8        29.63S
GORDONSVILLE*  CLOUDY    54  49  85 N8        29.63R
ORANGE*        CLOUDY    54  50  87 NE7       29.65R
LOUISA*        CLOUDY    55  52  88 N5        29.62R
BUMPASS*       CLOUDY    53  50  89 CALM      29.63R
FARMVILLE*     LGT RAIN  53  53 100 N9        29.62R
CREWE*         CLOUDY    52  52 100 N3        29.62R
FORT PICKETT*  NOT AVBL
CHASE CITY*    CLOUDY    51  50  95 CALM      29.62R
CLARKSVILLE*   CLOUDY    52  52 100 N3        29.61R
SOUTH HILL*    CLOUDY    52  51  97 N6        29.67R
LAWRENCEVILLE* CLOUDY    52  52  99 N3        29.61R
EMPORIA*       RAIN      52  50  93 N7        29.62R
$$

VAZ088>098-052300-
SOUTHEAST VIRGINIA

CITY           SKY/WX    TMP DP  RH WIND       PRES   REMARKS
NORFOLK        CLOUDY    53  48  83 NE10      29.60R FOG
VIRGINIA BEACH CLOUDY    55  46  71 NE20G26   29.60R
NORFOLK NAVAL  LGT RAIN  53  50  89 NE10      29.62R FOG
WEST POINT*    CLOUDY    52  49  89 N3        29.63R
SALUDA*        CLOUDY    52  50  93 N8        29.60R
NEWPORT NEWS   LGT RAIN  53  51  93 CALM      29.61R
LANGLEY AFB    CLOUDY    54  50  87 NE12G17   29.60R
FORT EUSTIS    LGT RAIN  53  47  81 NE5       29.60R
WILLIAMSBURG*  PTSUNNY   54  52  94 CALM      29.63R
HR EXEC AP*    CLOUDY    54  50  87 CALM      29.62R
FRANKLIN*      RAIN      52  50  94 NE8       29.60R
US460-WAKEFLD  RAIN      52  50  93 N3        29.61R FOG
$$

VAZ020-022-025-037-045-052300-
WEST CENTRAL AND SOUTHWEST VIRGINIA

CITY           SKY/WX    TMP DP  RH WIND       PRES   REMARKS
STAUNTON*      CLOUDY    53  50  90 N6        29.66S
WAYNESBORO*    CLOUDY    49  48  95 N6        29.64S
HOT SPRINGS VA RAIN      43  43 100 NW7       29.63S VSB<1/4
LYNCHBURG      LGT RAIN  52  51  97 CALM      29.64R
DANVILLE       LGT RAIN  48  47  96 W9        29.64R FOG
SOUTH BOSTON*  CLOUDY    53  51  95 CALM      29.63R
MARTINSVILLE   DRIZZLE   44  42  93 NW5       29.69R
ROANOKE        CLOUDY    50  44  80 W7        29.68R
BLACKSBURG     LGT RAIN  44  41  90 W6        29.72R
DUBLIN*        LGT RAIN  44  41  89 W5        29.72R
MARION*        LGT RAIN  42  38  85 W7        29.75R
HILLSVILLE*    DRIZZLE   40  39  95 NW14G22   29.68R
RICHLANDS*     LGT RAIN  40  31  69 NW7       29.76R
WISE*          LGT RAIN  43  39  87 NW5       29.79R
ABINGDON*      DRIZZLE   47  40  78 N12       29.76R
$$

MDZ021>025-VAZ099-100-052300-
SOUTHERN MARYLAND AND THE DELMARVA PENINSULA

CITY           SKY/WX    TMP DP  RH WIND       PRES   REMARKS
PATUXENT RIVER CLOUDY    54  46  74 NE14      29.61S
BAY BRIDGE APT NOT AVBL
LEONARDTOWN    CLOUDY    52  46  82 NE3       29.63R
DOVER          CLOUDY    53  50  89 N7        29.62S
GEORGETOWN     CLOUDY    52  47  83 NE12      29.62S
EASTON         CLOUDY   N/A N/A N/A NE9       29.66R
CAMBRIDGE      PTSUNNY   52  46  82 N5        29.61S
SALISBURY      CLOUDY    52  48  86 NE10      29.61R
OCEAN CITY     CLOUDY    50  46  86 NE14G22   29.60S
WALLOPS ISLAND CLOUDY    52  46  80 NE20G25   29.60R
ACCOMACK*      CLOUDY   N/A N/A N/A NE15G21   29.59R
$$

NCZ012>017-030>032-052300-
NORTH CENTRAL AND EASTERN NORTH CAROLINA

CITY           SKY/WX    TMP DP  RH WIND       PRES   REMARKS
ROANOKE RAPIDS LGT RAIN  54  52  94 NE6       29.60R
RALEIGH        PTSUNNY   54  49  83 N12G22    29.62R
ELIZABETH CITY LGT RAIN  51  49  92 NE18      29.60R FOG
AHOSKIE*       RAIN      53  51  94 N5        29.61R
EDENTON*       RAIN      53  53 100 NE10G17   29.58R
CURRITUCK*     DRIZZLE   52  49  87 N16       29.60R
KILL DEVIL HLS CLOUDY    52  48  87 N7G20     29.55R
MANTEO         CLOUDY    52  50  94 NE15      29.58R
CAPE HATTERAS  RAIN      54  53  97 N8G18     29.54R FOG
TARBORO*       RAIN      55  53  93 CALM      29.60R
GOLDSBORO      CLOUDY    57  57 100 N6        29.58R
WASHINGTON     HVY RAIN  54  52  94 N9        29.59R
GREENVILLE     RAIN      54  54 100 N5        29.63R
NEW BERN       HVY RAIN  56  53  90 N17       29.57S FOG
WILMINGTON     MOSUNNY   60  49  66 N13       29.58R
$$

VAZ048-052300-
ELSEWHERE

CITY           SKY/WX    TMP DP  RH WIND       PRES   REMARKS
HARRISBURG PA  CLOUDY    58  44  60 NE8       29.64S
BALTIMORE      CLOUDY    55  46  71 NE8       29.63S
ANNAPOLIS      CLOUDY    54  49  83 NW5       29.63S
ANDREWS AFB    PTSUNNY   54  47  77 N15       29.62S
PHILADELPHIA   CLOUDY    58  45  62 NE8       29.63S
HENDERSON NC   RAIN      52  52 100 CALM      29.60S
GREENSBORO     LGT RAIN  46  45  93 NW10      29.66R
ROCKY MOUNT    CLOUDY    54  51  90 VRB3      29.60R
$$

VAZ100-052300-
MARINE

STATION/POSITION TIME  TEMP    WIND        PRES    WAVE   SWELL
                       AIR SEA DIR/SP/G            HT/PER HT/PER
                 (UTC) (F)     (DEG/KT/KT) (MB)    (FT/S) (FT/S)
BRANDYWINE LGT   2100   52      50/ 11/ 13 1003.0R
CAPE MAY NJ      2100   52 57   10/  5/  9 1002.6R
LEWES DE         2100   51 55   40/ 12/ 14 1002.9R
15NM E FENWICK I 2150   49 51              1001.6R   8/ 8
OCEAN-CITY-INLET 2100   51 55   40/  9/ 18 1001.6R
WACHAPREAGUE VA  2100   52 58   40/ 20/ 25 1001.0S
THOMAS POINT MD  2200   53 58  340/  9/ 10 1004.5S
GOOSES REEF MD   2100   55 58   30/ 14/ 17 1003.9F   2/ 3
COVE POINT MD    2100   53      30/ 14/ 18 1003.0F
SOLOMONS ISLAND  2100   54 60   10/  8/ 11   N/A
BISHOPS HEAD MD  2100   54 58   20/  8/ 13 1001.4F
PINEY POINT MD   2100           30/  9/ 10   N/A
POTOMAC MD       2100   54 59   40/ 12/ 16 1001.3S   1
CAMBRIDGE MD     2100   54 60   20/ 11/ 15 1001.9F
LEWISETTA VA     2100   54 61   10/  9/ 14 1002.2R
RAPPAHANNOCK LGT 2100           20/ 19/ 21 1002.0R
STINGRAY PT      2100   54 61   40/ 16/ 19 1002.0R   2/ 3
YORK RVR RNG VA  2100   54      40/ 15/ 17 1000.9R
YORKTOWN VA      2100   54 62   40/ 13/ 17 1001.4R
JAMESTOWN VA     2100   53 67   40/  6/ 10   N/A     0
DOMINION TERM VA 2100   54      20/  8/ 12 1001.9R
KIPTOPEKE VA     2100      61   50/  8/ 16   N/A
CHES BAY BRIDGE  2100   53 61   20/ 21/ 26 1000.7R
CAPE HENRY VA    2100   52      40/ 23/ 28   N/A
CHESAPEAKE LGHT  2100   50      30/ 27/ 29 1001.0R
WILLOUBY STN VA  2100   53      60/ 11/ 14 1002.5R
CAPE HENRY BUOY  2112      55                N/A     7/ 7
CAPE CHARLES BUO 2126      57                N/A     7/ 7   2/12
OFFSHORE WE BUOY 2121      54                N/A     8/ 7   2/18
64NM E OF VA BCH 2150   50 51   20/ 21/ 25  999.3R   7/ 6   2/12
DUCK PIER NC     2100   52 61   20/ 21/ 28 1000.0R
44100 DUCK FRF   2124      55                N/A     8/ 7
44056 DUCK FRF   2111      60                N/A     7/ 7
OREGON INLET NC  2100   52 61   10/ 15/ 23  999.8R
HATTERAS NC      2100   56 68   30/ 15/ 20  998.8R
DIAMOND SHLS NC  2150   57 77   10/ 17/ 21  999.0R   6/ 7   2/ 8
CAPE LOOKOUT NC  2100   61      60/ 13/ 15  998.9R
$$




USA.gov is the U.S. government's official web portal to all federal, state and local government web resources and services.